N1BSO Weather Reports


Display with metric or nautical units.
time (UTC)temp
F
wind
direction
speed
MPH
gust
MPH
rain 1hr
in
rain 24hr
in
rain mn
in
humidity
%
barometer
mb
20260507181601 64 344 4.0 12.0 0.00 0.36 0.26 48 1005.3
20260507180054 64 246 1.0 14.0 0.00 0.36 0.26 50 1005.5
20260507174557 64 304 4.0 11.0 0.00 0.36 0.26 51 1005.5
20260507173105 64 326 4.0 14.0 0.00 0.36 0.26 53 1005.6
20260507171555 63 321 4.0 11.0 0.00 0.36 0.26 57 1005.7
20260507164600 62 218 1.0 8.0 0.00 0.36 0.26 57 1006.1
20260507163054 62 344 1.0 7.0 0.00 0.36 0.26 60 1006.1
20260507161556 62 249 3.0 8.0 0.00 0.36 0.26 59 1006.1
20260507160057 61 210 3.0 8.0 0.00 0.36 0.26 60 1006.6
20260507154558 61 185 2.0 7.0 0.00 0.36 0.26 62 1006.7
20260507153101 60 0 1.0 7.0 0.00 0.36 0.26 63 1006.9
20260507151554 59 209 1.0 5.0 0.00 0.36 0.26 66 1006.9
20260507150057 59 25 2.0 6.0 0.00 0.36 0.26 64 1007.2
20260507144556 58 0 0.0 3.0 0.00 0.36 0.26 65 1007.3
20260507143105 57 38 1.0 4.0 0.00 0.36 0.26 67 1007.3
20260507141555 55 91 1.0 7.0 0.00 0.36 0.26 77 1007.5
20260507140057 53 344 2.0 10.0 0.00 0.36 0.26 83 1007.6
20260507134600 52 332 2.0 4.0 0.00 0.36 0.26 89 1007.4
20260507133133 51 0 0.0 8.0 0.00 0.36 0.26 91 1007.7
20260507131556 51 326 1.0 5.0 0.00 0.36 0.26 94 1007.8
20260507130107 50 0 1.0 6.0 0.00 0.36 0.26 95 1007.5
20260507124557 50 319 1.0 3.0 0.01 0.36 0.26 95 1007.6
20260507123056 49 274 1.0 6.0 0.02 0.36 0.26 95 1008.0
20260507121611 49 0 0.0 2.0 0.02 0.36 0.26 96 1007.7
20260507120100 48 0 0.0 2.0 0.03 0.36 0.26 95 1007.6
20260507114635 48 0 0.0 3.0 0.02 0.35 0.25 95 1007.3
20260507113056 48 222 0.0 2.0 0.02 0.34 0.24 95 1007.4
20260507111602 48 0 0.0 0.0 0.03 0.34 0.24 95 1007.5
20260507110059 48 0 0.0 2.0 0.03 0.33 0.23 95 1007.3
20260507104554 48 0 0.0 3.0 0.03 0.33 0.23 95 1007.3
20260507103055 49 290 1.0 7.0 0.02 0.32 0.22 94 1007.6
20260507101613 49 304 0.0 3.0 0.02 0.31 0.21 95 1007.5
20260507094605 50 282 0.0 3.0 0.02 0.30 0.20 94 1006.9
20260507093055 50 262 0.0 4.0 0.03 0.30 0.20 94 1006.7
20260507091557 51 231 1.0 7.0 0.07 0.29 0.19 94 1007.0
20260507090054 52 331 2.0 10.0 0.13 0.29 0.19 94 1006.4
20260507084602 53 318 1.0 5.0 0.18 0.28 0.18 95 1006.1
20260507083057 54 0 0.0 3.0 0.17 0.27 0.17 95 1006.2
20260507081554 54 287 1.0 6.0 0.12 0.22 0.12 95 1006.2
20260507080117 55 298 1.0 7.0 0.06 0.16 0.06 95 1006.3
20260507074558 56 309 0.0 4.0 0.00 0.10 0.00 96 1005.8
20260507073105 56 0 0.0 1.0 0.00 0.10 0.00 96 1005.1
20260507071556 56 272 0.0 4.0 0.00 0.10 0.00 96 1005.2
20260507070056 56 0 0.0 1.0 0.00 0.10 0.00 96 1005.3
20260507064600 56 0 0.0 1.0 0.00 0.10 0.00 96 1005.3
20260507063105 56 0 0.0 2.0 0.00 0.10 0.00 96 1005.3
20260507061558 56 192 1.0 3.0 0.00 0.10 0.00 96 1005.6
20260507060056 56 0 1.0 4.0 0.00 0.10 0.00 96 1005.8
20260507054557 56 292 0.0 5.0 0.00 0.10 0.00 96 1005.7
20260507053108 56 259 0.0 4.0 0.00 0.10 0.00 96 1005.8
20260507051557 56 247 2.0 6.0 0.00 0.10 0.00 96 1006.0
20260507050058 56 319 0.0 8.0 0.00 0.10 0.00 96 1006.5
20260507044608 56 313 1.0 6.0 0.00 0.10 0.00 96 1006.1
20260507043058 56 217 2.0 7.0 0.00 0.10 0.00 96 1006.1
20260507041559 56 256 1.0 8.0 0.00 0.10 0.00 96 1006.2
20260507034559 56 290 1.0 11.0 0.00 0.10 0.10 95 1006.5
20260507033109 56 211 2.0 8.0 0.00 0.10 0.10 95 1006.5
20260507031559 56 232 3.0 11.0 0.00 0.10 0.10 95 1006.4
20260507024605 56 140 3.0 12.0 0.00 0.10 0.10 95 1005.9
20260507023054 56 167 4.0 10.0 0.00 0.10 0.10 95 1006.1
20260507021556 56 0 3.0 8.0 0.00 0.10 0.10 95 1006.2
20260507020112 56 180 4.0 11.0 0.00 0.10 0.10 95 1006.5
20260507014605 56 257 2.0 10.0 0.00 0.10 0.10 95 1006.6
20260507013058 56 165 3.0 10.0 0.01 0.10 0.10 95 1006.7
20260507011556 56 290 3.0 10.0 0.01 0.10 0.10 95 1006.9
20260507004602 57 259 4.0 11.0 0.02 0.10 0.10 95 1006.8
20260507003055 57 205 3.0 17.0 0.01 0.09 0.09 94 1006.9
20260507001556 57 304 5.0 20.0 0.03 0.09 0.09 95 1006.7
20260507000056 57 346 3.0 18.0 0.05 0.09 0.09 95 1006.9
20260506234555 57 178 4.0 10.0 0.05 0.08 0.08 94 1006.7
20260506233111 57 212 3.0 12.0 0.06 0.08 0.08 94 1006.8
20260506231600 57 204 4.0 11.0 0.04 0.06 0.06 93 1007.0
20260506230056 58 179 3.0 12.0 0.02 0.04 0.04 93 1006.7
20260506224600 58 257 3.0 14.0 0.01 0.03 0.03 92 1006.8
20260506223057 59 231 5.0 16.0 0.00 0.02 0.02 91 1007.3
20260506221611 59 156 3.0 20.0 0.00 0.02 0.02 91 1007.2
20260506220056 59 173 3.0 12.0 0.00 0.02 0.02 91 1007.2
20260506214557 60 243 2.0 11.0 0.01 0.02 0.02 91 1007.3
20260506213115 60 138 2.0 14.0 0.01 0.02 0.02 89 1007.3
20260506211558 61 233 3.0 12.0 0.01 0.02 0.02 88 1007.8
20260506210058 60 212 4.0 18.0 0.02 0.02 0.02 88 1007.5
20260506204556 60 194 4.0 19.0 0.01 0.01 0.01 89 1007.6
20260506203059 60 304 5.0 14.0 0.01 0.01 0.01 89 1007.8
20260506201555 60 158 4.0 15.0 0.01 0.01 0.01 88 1007.9
20260506200055 62 274 4.0 14.0 0.00 0.00 0.00 84 1008.2
20260506194602 63 171 5.0 13.0 0.00 0.00 0.00 79 1008.3
20260506193058 63 290 6.0 20.0 0.00 0.00 0.00 78 1008.2
20260506191556 64 238 7.0 23.0 0.00 0.00 0.00 77 1008.3
20260506190058 64 241 8.0 20.0 0.00 0.00 0.00 77 1007.9
20260506184556 64 213 9.0 25.0 0.00 0.00 0.00 76 1008.1
20260506183104 65 288 4.0 18.0 0.00 0.00 0.00 76 1008.4